User: anonymous   Login
Location: �bnet
(46.9957°N, 8.4908°E)
Time: 02:23:43
(UTC+00:00)
Language:

Cosmos 2315 Rocket - Orbit

View from above orbital plane
View from above orbital plane
View from above satellite
View from above satellite

Ground track
Ground track

The orbit data is extracted from the following two-line orbital elements,

1 23604U 95032B   21208.48044734  .00000054  00000-0  41379-4 0  9998
2 23604  82.9047 119.7265 0024902  22.4985 337.7256 13.74305078306993
Epoch (UTC): 27 July 2021 11:31:50
Eccentricity: 0.0024902
inclination: 82.9047°
perigee height: 966 km
apogee height: 1002 km
right ascension of ascending node: 119.7265°
argument of perigee: 22.4985°
revolutions per day: 13.74305078
mean anomaly at epoch: 337.7256°
orbit number at epoch: 30699

The dashed part of the orbit path shows where the satellite is in the earth's shadow,  

DLR